TimeMDT,TemperatureF,Dew PointF,Humidity,Sea Level PressureIn,VisibilityMPH,Wind Direction,Wind SpeedMPH,Gust SpeedMPH,PrecipitationIn,Events,Conditions,WindDirDegrees,DateUTC
12:15 AM,37.4,35.6,93,29.67,10.0,SSW,8.1,-,N/A,,Overcast,200,2014-04-26 06:15:00
12:35 AM,37.4,35.6,93,29.66,10.0,WSW,9.2,-,N/A,,Overcast,250,2014-04-26 06:35:00
12:55 AM,37.4,35.6,93,29.66,10.0,West,6.9,-,N/A,,Overcast,270,2014-04-26 06:55:00
1:15 AM,35.6,35.6,100,29.65,10.0,West,3.5,-,N/A,,Mostly Cloudy,260,2014-04-26 07:15:00
1:35 AM,35.6,33.8,93,29.65,10.0,WSW,4.6,-,N/A,,Clear,250,2014-04-26 07:35:00
1:55 AM,35.6,33.8,93,29.64,10.0,Calm,Calm,-,N/A,,Scattered Clouds,0,2014-04-26 07:55:00
2:15 AM,35.6,35.6,100,29.63,10.0,Calm,Calm,-,N/A,,Clear,0,2014-04-26 08:15:00
2:35 AM,35.6,33.8,93,29.62,10.0,NNW,4.6,-,N/A,,Clear,330,2014-04-26 08:35:00
2:55 AM,33.8,33.8,100,29.61,10.0,Calm,Calm,-,N/A,,Clear,0,2014-04-26 08:55:00
3:15 AM,35.6,33.8,93,29.60,10.0,NE,3.5,-,N/A,,Clear,50,2014-04-26 09:15:00
3:35 AM,33.8,33.8,100,29.59,10.0,North,6.9,-,N/A,,Clear,360,2014-04-26 09:35:00
3:55 AM,33.8,33.8,100,29.59,10.0,North,4.6,-,N/A,,Clear,360,2014-04-26 09:55:00
4:10 AM,33.8,33.8,100,29.59,10.0,Calm,Calm,-,N/A,,Clear,0,2014-04-26 10:10:00
4:35 AM,33.8,33.8,100,29.59,10.0,Calm,Calm,-,N/A,,Scattered Clouds,0,2014-04-26 10:35:00
4:55 AM,33.8,33.8,100,29.58,10.0,NNW,5.8,-,N/A,,Mostly Cloudy,330,2014-04-26 10:55:00
5:15 AM,33.8,33.8,100,29.58,10.0,North,10.4,-,N/A,,Overcast,360,2014-04-26 11:15:00
5:35 AM,33.8,32.0,93,29.57,10.0,North,8.1,-,N/A,,Scattered Clouds,360,2014-04-26 11:35:00
5:55 AM,32.0,32.0,100,29.56,10.0,North,9.2,-,N/A,,Clear,350,2014-04-26 11:55:00
6:15 AM,33.8,32.0,93,29.56,10.0,East,4.6,-,N/A,,Mostly Cloudy,90,2014-04-26 12:15:00
6:35 AM,33.8,32.0,93,29.56,10.0,East,5.8,-,N/A,,Overcast,90,2014-04-26 12:35:00
6:55 AM,35.6,32.0,87,29.56,10.0,East,6.9,-,N/A,,Overcast,100,2014-04-26 12:55:00
7:15 AM,35.6,33.8,93,29.56,10.0,ENE,10.4,-,N/A,,Overcast,70,2014-04-26 13:15:00
7:35 AM,35.6,33.8,93,29.55,10.0,North,6.9,-,N/A,,Overcast,10,2014-04-26 13:35:00
7:55 AM,35.6,33.8,93,29.55,10.0,NE,10.4,-,N/A,,Mostly Cloudy,40,2014-04-26 13:55:00
8:10 AM,35.6,35.6,100,29.54,10.0,NNE,10.4,-,N/A,,Mostly Cloudy,30,2014-04-26 14:10:00
8:35 AM,35.6,35.6,100,29.53,10.0,North,9.2,-,N/A,,Overcast,10,2014-04-26 14:35:00
8:55 AM,37.4,35.6,93,29.53,10.0,NE,10.4,-,N/A,,Drizzle,50,2014-04-26 14:55:00
9:15 AM,37.4,35.6,93,29.52,10.0,NE,10.4,-,N/A,Rain,Light Rain,40,2014-04-26 15:15:00
9:55 AM,41.0,35.6,81,29.51,10.0,ENE,13.8,-,N/A,,Mostly Cloudy,70,2014-04-26 15:55:00
10:15 AM,41.0,35.6,81,29.50,10.0,NE,10.4,-,N/A,,Mostly Cloudy,50,2014-04-26 16:15:00
10:35 AM,42.8,37.4,81,29.50,10.0,NE,11.5,-,N/A,,Mostly Cloudy,50,2014-04-26 16:35:00
10:55 AM,42.8,33.8,70,29.49,10.0,East,13.8,-,N/A,,Overcast,80,2014-04-26 16:55:00
11:15 AM,42.8,35.6,76,29.49,10.0,East,10.4,17.3,N/A,,Mostly Cloudy,90,2014-04-26 17:15:00
11:35 AM,44.6,35.6,71,29.48,10.0,East,10.4,-,N/A,,Mostly Cloudy,80,2014-04-26 17:35:00
11:55 AM,46.4,35.6,66,29.47,10.0,East,10.4,16.1,N/A,,Scattered Clouds,100,2014-04-26 17:55:00
12:15 PM,48.2,35.6,62,29.47,10.0,East,10.4,-,N/A,,Scattered Clouds,80,2014-04-26 18:15:00
12:35 PM,50.0,35.6,58,29.46,10.0,ESE,6.9,-,N/A,,Overcast,110,2014-04-26 18:35:00
12:55 PM,48.2,33.8,58,29.44,10.0,East,11.5,-,N/A,,Mostly Cloudy,90,2014-04-26 18:55:00
1:15 PM,50.0,33.8,54,29.45,10.0,SSE,6.9,16.1,N/A,,Mostly Cloudy,160,2014-04-26 19:15:00
1:35 PM,51.8,32.0,47,29.43,10.0,SSE,5.8,9.2,N/A,,Scattered Clouds,160,2014-04-26 19:35:00
1:55 PM,51.8,30.2,44,29.43,10.0,SW,15.0,21.9,N/A,Thunderstorm,Thunderstorm,220,2014-04-26 19:55:00
2:15 PM,41.0,33.8,76,29.45,10.0,West,23.0,32.2,N/A,Thunderstorm,Mostly Cloudy,270,2014-04-26 20:15:00
2:35 PM,39.2,33.8,81,29.46,10.0,West,19.6,28.8,N/A,Thunderstorm,Thunderstorm,260,2014-04-26 20:35:00
2:55 PM,37.4,35.6,93,29.46,10.0,WSW,20.7,24.2,N/A,Thunderstorm,Unknown,250,2014-04-26 20:55:00
3:15 PM,37.4,35.6,93,29.47,10.0,West,17.3,21.9,N/A,Rain-Thunderstorm,Light Thunderstorms and Rain,260,2014-04-26 21:15:00
3:35 PM,37.4,35.6,93,29.48,10.0,West,19.6,25.3,0.01,Rain-Thunderstorm,Light Thunderstorms and Rain,260,2014-04-26 21:35:00
3:55 PM,35.6,35.6,100,29.49,10.0,West,17.3,23.0,0.01,,Overcast,270,2014-04-26 21:55:00
4:15 PM,35.6,35.6,100,29.50,10.0,WNW,16.1,-,N/A,Thunderstorm,Overcast,290,2014-04-26 22:15:00
4:35 PM,37.4,33.8,87,29.51,10.0,WNW,15.0,20.7,N/A,,Overcast,290,2014-04-26 22:35:00
4:55 PM,35.6,33.8,93,29.51,10.0,WNW,17.3,-,N/A,Thunderstorm,Overcast,300,2014-04-26 22:55:00
5:15 PM,35.6,32.0,87,29.51,10.0,West,20.7,27.6,N/A,Thunderstorm,Overcast,280,2014-04-26 23:15:00
5:35 PM,35.6,32.0,87,29.51,10.0,WNW,23.0,26.5,N/A,,Scattered Clouds,290,2014-04-26 23:35:00
5:55 PM,35.6,32.0,87,29.51,10.0,WNW,21.9,28.8,N/A,,Clear,290,2014-04-26 23:55:00
6:15 PM,35.6,32.0,87,29.52,10.0,WNW,26.5,35.7,N/A,,Scattered Clouds,290,2014-04-27 00:15:00
6:35 PM,35.6,30.2,81,29.53,10.0,West,26.5,32.2,N/A,,Mostly Cloudy,280,2014-04-27 00:35:00
6:55 PM,33.8,30.2,87,29.54,10.0,WNW,28.8,33.4,N/A,,Overcast,290,2014-04-27 00:55:00
7:15 PM,33.8,30.2,87,29.56,10.0,West,25.3,33.4,N/A,,Overcast,280,2014-04-27 01:15:00
7:35 PM,33.8,32.0,93,29.56,10.0,West,21.9,26.5,N/A,,Overcast,270,2014-04-27 01:35:00
8:15 PM,32.0,32.0,100,29.58,4.0,West,24.2,31.1,N/A,Snow,Light Snow,280,2014-04-27 02:15:00
8:30 PM,32.0,30.2,93,29.59,5.0,West,27.6,38.0,N/A,Snow,Light Snow,280,2014-04-27 02:30:00
8:55 PM,32.0,28.4,87,29.60,5.0,West,31.1,41.4,N/A,Snow,Light Snow,280,2014-04-27 02:55:00
9:15 PM,32.0,28.4,87,29.61,10.0,WNW,26.5,40.3,N/A,,Overcast,290,2014-04-27 03:15:00
9:50 PM,32.0,28.4,87,29.63,10.0,West,23.0,31.1,N/A,,Overcast,280,2014-04-27 03:50:00
10:15 PM,32.0,28.4,87,29.64,10.0,West,19.6,24.2,N/A,,Overcast,280,2014-04-27 04:15:00
10:35 PM,32.0,26.6,80,29.64,10.0,West,20.7,26.5,N/A,,Overcast,280,2014-04-27 04:35:00
10:55 PM,32.0,26.6,80,29.64,10.0,WNW,18.4,26.5,N/A,,Overcast,290,2014-04-27 04:55:00
11:15 PM,32.0,24.8,75,29.64,10.0,WNW,19.6,25.3,N/A,,Overcast,290,2014-04-27 05:15:00
11:35 PM,32.0,23.0,69,29.65,10.0,WNW,18.4,27.6,N/A,,Overcast,290,2014-04-27 05:35:00